QPF
0.00 0.00 0.00 0.00 0.00 0.00 0.00 0.00 0.00 0.00 0.00 0.00 0.00 0.00 0.00 0.00 0.00 0.00 0.00 0.00 0.00 0.00 0.00 0.00 0.00 0.00 0.00 0.00 0.00 0.00 0.00 0.00 0.00 0.00 0.00 0.00 0.00 0.00 0.00 0.00 0.00 0.00 0.00 0.00
0.00 0.00 0.00 0.00 0.00 0.00 0.00 0.00 0.00 0.00 0.00 0.00 0.00 0.00 0.00 0.00 0.00 0.00 0.00 0.00 0.00 0.00 0.00 0.00 0.00 0.00 0.00 0.00 0.00 0.00 0.00 0.00 0.00 0.00 0.00 0.00 0.00 0.00 0.00 0.00 0.00 0.00 0.00 0.00
0.00 0.00 0.00 0.00 0.00 0.00 0.00 0.00 0.00 0.00 0.00 0.00 0.00 0.00 0.00 0.00 0.00 0.00 0.00 0.00 0.00 0.00 0.00 0.00 0.00 0.00 0.00 0.00 0.00 0.00 0.00 0.00 0.00 0.00 0.00 0.00 0.00 0.00 0.00 0.00 0.00 0.00 0.00 0.00
0.00 0.00 0.00 0.00 0.00 0.00 0.00 0.00 0.00 0.00 0.00 0.00 0.00 0.00 0.00 0.00 0.00 0.00 0.00 0.00 0.00 0.00 0.00 0.00 0.00 0.00 0.00 0.00 0.00 0.00 0.00 0.00 0.00 0.00 0.00 0.00 0.00 0.00 0.00 0.00 0.00 0.00 0.00 0.00
0.00 0.00 0.00 0.00 0.00 0.00 0.00 0.00 0.00 0.00 0.00 0.00 0.00 0.00 0.00 0.00 0.00 0.00 0.00 0.00 0.00 0.00 0.00 0.00 0.00 0.00 0.00 0.00 0.00 0.00 0.00 0.00 0.00 0.00 0.00 0.00 0.00 0.00 0.00 0.00 0.00 0.00 0.00 0.00
0.00 0.00 0.00 0.00 0.00 0.00 0.00 0.00 0.00 0.00 0.00 0.00 0.00 0.00 0.00 0.00 0.00 0.00 0.00 0.00 0.00 0.00 0.00 0.00 0.00 0.00 0.00 0.00 0.00 0.00 0.00 0.00 0.00 0.00 0.00 0.00 0.00 0.00 0.00 0.00 0.00 0.00 0.00 0.00
0.00 0.00 0.00 0.00 0.00 0.00 0.00 0.00 0.00 0.00 0.00 0.00 0.00 0.00 0.00 0.00 0.00 0.00 0.00 0.00 0.00 0.00 0.00 0.00 0.00 0.00 0.00 0.00 0.00 0.00 0.00 0.00 0.00 0.00 0.00 0.00 0.00 0.00 0.00 0.00 0.00 0.00 0.00 0.00
0.00 0.00 0.00 0.00 0.00 0.00 0.00 0.00 0.00 0.00 0.00 0.00 0.00 0.00 0.00 0.00 0.00 0.00 0.00 0.00 0.00 0.00 0.00 0.00 0.00 0.00 0.00 0.00 0.00 0.00 0.00 0.00 0.00 0.00 0.00 0.00 0.00 0.00 0.00 0.00 0.00 0.00 0.00 0.00
0.00 0.00 0.00 0.00 0.00 0.00 0.00 0.00 0.00 0.00 0.00 0.00 0.00 0.00 0.00 0.00 0.00 0.00 0.00 0.00 0.00 0.00 0.00 0.00 0.00 0.00 0.00 0.00 0.00 0.00 0.00 0.00 0.00 0.00 0.00 0.00 0.00 0.00 0.00 0.00 0.00 0.00 0.00 0.00
0.00 0.00 0.00 0.00 0.00 0.00 0.00 0.00 0.00 0.00 0.00 0.00 0.00 0.00 0.00 0.00 0.00 0.00 0.00 0.00 0.00 0.00 0.00 0.00 0.00 0.00 0.00 0.00 0.00 0.00 0.00 0.00 0.00 0.00 0.00 0.00 0.00 0.00 0.00 0.00 0.00 0.00 0.00 0.00
0.00 0.00 0.00 0.00 0.00 0.00 0.00 0.00 0.00 0.00 0.00 0.00 0.00 0.00 0.00 0.00 0.00 0.00 0.00 0.00 0.00 0.00 0.00 0.00 0.00 0.00 0.00 0.00 0.00 0.00 0.00 0.00 0.00 0.00 0.00 0.00 0.00 0.00 0.00 0.00 0.00 0.00 0.00 0.00
0.00 0.00 0.00 0.00 0.00 0.00 0.00 0.00 0.00 0.00 0.00 0.00 0.00 0.00 0.00 0.00 0.00 0.00 0.00 0.00 0.00 0.00 0.00 0.00 0.00 0.00 0.00 0.00 0.00 0.00 0.00 0.00 0.00 0.00 0.00 0.00 0.00 0.00 0.00 0.00 0.00 0.00 0.00 0.00
0.00 0.00 0.00 0.00 0.00 0.00 0.00 0.00 0.00 0.00 0.00 0.00 0.00 0.00 0.00 0.00 0.00 0.00 0.00 0.00 0.00 0.00 0.00 0.00 0.00 0.00 0.00 0.00 0.00 0.00 0.00 0.00 0.00 0.00 0.00 0.00 0.00 0.00 0.00 0.00 0.00 0.00 0.00 0.00
0.00 0.00 0.00 0.00 0.00 0.00 0.00 0.00 0.00 0.00 0.00 0.00 0.00 0.00 0.00 0.00 0.00 0.00 0.00 0.00 0.00 0.00 0.00 0.00 0.00 0.00 0.00 0.00 0.00 0.00 0.00 0.00 0.00 0.00 0.00 0.00 0.00 0.00 0.00 0.00 0.00 0.00 0.00 0.00
0.00 0.00 0.00 0.00 0.00 0.00 0.00 0.00 0.00 0.00 0.00 0.00 0.00 0.00 0.00 0.00 0.00 0.00 0.00 0.00 0.00 0.00 0.00 0.00 0.00 0.00 0.00 0.00 0.00 0.00 0.00 0.00 0.00 0.00 0.00 0.00 0.00 0.00 0.00 0.00 0.00 0.00 0.00 0.00
0.00 0.00 0.00 0.00 0.00 0.00 0.00 0.00 0.00 0.00 0.00 0.00 0.00 0.00 0.00 0.00 0.00 0.00 0.00 0.00 0.00 0.00 0.00 0.00 0.00 0.00 0.00 0.00 0.00 0.00 0.00 0.00 0.00 0.00 0.00 0.00 0.00 0.00 0.00 0.00 0.00 0.00 0.00 0.00
0.00 0.00 0.00 0.00 0.01 0.00 0.00 0.00 0.00 0.00 0.00 0.00 0.00 0.00 0.00 0.00 0.00 0.00 0.00 0.00 0.00 0.00 0.00 0.00 0.00 0.00 0.00 0.00 0.00 0.00 0.00 0.00 0.00 0.00 0.00 0.00 0.00 0.00 0.00 0.00 0.00 0.00 0.00 0.00
0.00 0.01 0.02 0.03 0.03 0.00 0.00 0.00 0.00 0.00 0.00 0.00 0.00 0.00 0.00 0.00 0.00 0.00 0.00 0.00 0.00 0.00 0.00 0.00 0.00 0.00 0.00 0.00 0.00 0.00 0.00 0.00 0.00 0.00 0.00 0.00 0.00 0.00 0.00 0.00 0.00 0.00 0.00 0.00
0.02 0.04 0.06 0.06 0.04 0.00 0.00 0.00 0.00 0.00 0.00 0.00 0.00 0.00 0.00 0.00 0.00 0.00 0.00 0.00 0.00 0.00 0.00 0.00 0.00 0.00 0.00 0.00 0.00 0.00 0.00 0.00 0.00 0.00 0.00 0.00 0.00 0.00 0.00 0.00 0.00 0.00 0.00 0.00
0.06 0.08 0.07 0.04 0.02 0.00 0.00 0.00 0.00 0.00 0.00 0.00 0.00 0.00 0.00 0.00 0.00 0.00 0.00 0.00 0.00 0.00 0.00 0.00 0.00 0.00 0.00 0.00 0.00 0.00 0.00 0.00 0.00 0.00 0.00 0.00 0.00 0.00 0.00 0.00 0.00 0.00 0.00 0.00
0.04 0.02 0.01 0.01 0.01 0.01 0.00 0.00 0.00 0.00 0.00 0.00 0.00 0.00 0.00 0.00 0.00 0.00 0.00 0.00 0.00 0.00 0.00 0.00 0.00 0.00 0.00 0.00 0.00 0.00 0.00 0.00 0.00 0.00 0.00 0.00 0.00 0.00 0.00 0.00 0.00 0.00 0.00 0.00
0.00 0.00 0.01 0.00 0.00 0.00 0.00 0.00 0.00 0.00 0.00 0.00 0.00 0.00 0.00 0.00 0.00 0.00 0.00 0.00 0.00 0.00 0.00 0.00 0.00 0.00 0.00 0.00 0.00 0.00 0.00 0.00 0.00 0.00 0.00 0.00 0.00 0.00 0.00 0.00 0.00 0.00 0.00 0.00
0.00 0.00 0.00 0.00 0.00 0.00 0.00 0.00 0.00 0.00 0.00 0.00 0.00 0.00 0.00 0.00 0.00 0.00 0.00 0.00 0.00 0.00 0.00 0.00 0.00 0.00 0.00 0.00 0.00 0.00 0.00 0.00 0.00 0.00 0.00 0.00 0.00 0.00 0.00 0.00 0.00 0.00 0.00 0.00
0.00 0.00 0.00 0.00 0.00 0.00 0.00 0.00 0.00 0.00 0.00 0.00 0.00 0.00 0.00 0.00 0.00 0.00 0.00 0.00 0.00 0.00 0.00 0.00 0.00 0.00 0.00 0.00 0.00 0.00 0.00 0.00 0.00 0.00 0.00 0.00 0.00 0.00 0.00 0.00 0.00 0.00 0.00 0.00
0.00 0.00 0.00 0.00 0.00 0.00 0.00 0.00 0.00 0.00 0.00 0.00 0.00 0.00 0.00 0.00 0.00 0.00 0.00 0.00 0.00 0.00 0.00 0.00 0.00 0.00 0.00 0.00 0.00 0.00 0.00 0.00 0.00 0.00 0.00 0.00 0.00 0.00 0.00 0.00 0.00 0.00 0.00 0.00
0.00 0.00 0.00 0.00 0.00 0.00 0.00 0.00 0.00 0.00 0.00 0.00 0.00 0.00 0.00 0.00 0.00 0.00 0.00 0.00 0.00 0.00 0.00 0.00 0.00 0.00 0.00 0.00 0.00 0.00 0.00 0.00 0.00 0.00 0.00 0.00 0.00 0.00 0.00 0.00 0.00 0.00 0.00 0.00
0.00 0.00 0.00 0.00 0.00 0.00 0.00 0.00 0.00 0.00 0.00 0.00 0.00 0.00 0.00 0.00 0.00 0.00 0.00 0.00 0.00 0.00 0.00 0.00 0.00 0.00 0.00 0.00 0.00 0.00 0.00 0.00 0.00 0.00 0.00 0.00 0.00 0.00 0.00 0.00 0.00 0.00 0.00 0.00
MSLP
1016.01 1016.46 1016.74 1017.09 1017.15 1017.05 1016.88 1017.01 1016.90 1016.08 1015.76 1016.53 1017.36 1016.94 1015.56 1013.90 1012.23 1011.32 1010.83 1010.52 1010.70 1011.06 1011.38 1012.04 1012.32 1012.66 1012.58 1012.33 1012.31 1012.56 1012.69 1012.85 1012.97 1012.65 1012.21 1012.20 1012.56 1013.40 1014.05 1015.15 1016.42 1017.32 1018.19 1019.11
1015.82 1016.30 1016.67 1017.03 1016.99 1016.89 1017.02 1017.08 1016.78 1016.11 1016.03 1017.12 1017.46 1016.56 1015.37 1014.04 1012.46 1011.78 1011.30 1011.16 1011.16 1011.30 1011.81 1012.49 1012.64 1012.70 1012.73 1012.63 1012.82 1013.22 1013.27 1014.06 1014.22 1013.95 1013.54 1013.35 1014.11 1014.70 1014.91 1015.55 1016.47 1018.01 1019.04 1019.66
1015.62 1016.10 1016.52 1016.88 1016.76 1016.92 1017.12 1017.25 1017.24 1017.15 1017.17 1017.28 1016.84 1016.37 1015.38 1014.04 1012.51 1012.03 1011.72 1011.73 1011.54 1011.80 1012.45 1012.54 1013.09 1013.26 1013.30 1013.13 1013.38 1013.61 1013.80 1015.46 1015.64 1015.82 1015.59 1015.56 1015.94 1016.02 1015.97 1016.26 1017.53 1018.66 1019.61 1020.07
1015.30 1015.92 1016.37 1016.66 1016.65 1016.95 1017.30 1017.24 1017.08 1016.74 1017.38 1017.37 1016.88 1016.26 1015.48 1014.35 1013.15 1012.38 1012.12 1012.36 1012.47 1012.59 1013.20 1013.44 1013.72 1013.68 1013.76 1013.73 1013.97 1014.27 1014.89 1016.60 1016.70 1016.90 1016.76 1016.68 1017.29 1017.40 1017.33 1017.65 1018.34 1018.95 1019.80 1020.53
1015.19 1015.72 1016.20 1016.48 1016.74 1017.02 1017.46 1017.42 1016.90 1016.74 1016.74 1016.59 1016.66 1016.21 1015.40 1014.49 1013.61 1012.95 1012.80 1012.99 1013.10 1013.04 1013.60 1013.86 1014.06 1014.08 1014.30 1014.38 1014.63 1015.21 1015.95 1017.29 1017.62 1018.27 1018.05 1017.86 1018.19 1018.36 1018.34 1018.65 1019.02 1019.43 1019.97 1020.70
1014.88 1015.41 1016.05 1016.48 1016.71 1017.03 1017.34 1017.12 1016.62 1016.41 1016.88 1016.86 1016.58 1015.85 1015.02 1014.32 1013.89 1013.62 1013.15 1013.23 1013.50 1013.78 1013.97 1014.15 1014.39 1014.38 1014.46 1014.56 1015.09 1016.02 1016.65 1017.73 1018.82 1019.26 1019.05 1018.88 1019.12 1018.97 1018.94 1019.33 1019.68 1020.17 1020.52 1020.98
1014.58 1015.15 1015.77 1016.34 1016.60 1016.89 1017.08 1016.78 1016.64 1016.56 1016.94 1016.54 1015.94 1015.28 1014.89 1014.40 1014.11 1013.97 1013.98 1013.83 1013.80 1014.21 1014.13 1014.46 1014.82 1015.04 1015.11 1015.12 1015.54 1015.89 1017.22 1018.38 1019.40 1020.21 1019.81 1019.93 1019.40 1018.98 1018.98 1019.41 1019.97 1020.26 1020.70 1021.30
1014.35 1014.92 1015.53 1016.15 1016.43 1016.69 1016.90 1016.78 1016.67 1016.42 1016.60 1016.17 1015.58 1015.16 1014.78 1014.63 1014.52 1014.58 1014.42 1014.50 1014.60 1014.53 1015.17 1016.16 1016.72 1016.78 1016.25 1016.12 1016.36 1016.72 1017.11 1018.54 1020.49 1021.14 1021.12 1020.60 1019.48 1018.98 1019.04 1019.32 1020.13 1020.39 1020.90 1021.64
1014.10 1014.71 1015.24 1015.88 1016.23 1016.49 1017.02 1016.86 1016.76 1016.53 1016.48 1016.43 1015.86 1015.31 1014.95 1015.10 1015.13 1015.32 1015.16 1015.04 1015.01 1015.27 1016.96 1017.84 1018.44 1018.34 1017.70 1017.26 1017.25 1017.38 1017.86 1018.50 1019.93 1021.54 1021.56 1020.63 1019.41 1018.81 1018.76 1019.26 1020.21 1020.44 1021.04 1021.94
1013.81 1014.46 1015.04 1015.62 1016.02 1016.39 1016.85 1016.83 1016.72 1016.68 1016.68 1016.37 1015.90 1015.54 1015.24 1015.26 1015.44 1015.79 1015.81 1015.72 1015.93 1016.28 1018.13 1019.38 1019.77 1019.28 1018.42 1017.97 1017.81 1018.11 1018.74 1019.73 1020.70 1021.47 1021.21 1020.34 1019.28 1018.90 1018.96 1019.74 1020.93 1020.62 1021.30 1022.22
1013.53 1014.20 1014.83 1015.42 1015.86 1016.30 1016.61 1016.60 1016.53 1016.54 1016.68 1016.44 1015.98 1015.61 1015.35 1015.38 1015.48 1015.91 1016.34 1016.79 1017.17 1018.00 1019.17 1020.06 1020.31 1019.94 1019.08 1018.67 1018.25 1018.22 1018.88 1019.97 1020.96 1021.50 1021.25 1020.37 1019.33 1019.12 1019.63 1020.36 1020.54 1021.13 1021.93 1022.84
1013.26 1013.95 1014.65 1015.18 1015.69 1016.12 1016.40 1016.84 1016.16 1016.32 1016.82 1016.74 1016.28 1015.86 1015.54 1015.39 1015.32 1015.67 1016.50 1017.10 1017.56 1018.17 1019.45 1020.28 1020.47 1020.41 1019.92 1019.56 1019.16 1018.54 1019.08 1019.18 1019.80 1020.81 1020.77 1020.16 1019.89 1019.84 1020.14 1020.46 1020.98 1021.71 1022.46 1023.53
1013.03 1013.78 1014.46 1014.94 1015.51 1015.93 1016.22 1016.52 1016.30 1016.46 1016.83 1016.89 1016.51 1016.22 1015.66 1015.31 1015.37 1015.27 1016.07 1017.32 1017.47 1018.20 1018.60 1019.69 1020.52 1020.72 1020.48 1020.29 1019.58 1019.07 1018.88 1018.95 1019.76 1020.47 1020.75 1020.58 1020.45 1020.50 1020.70 1021.06 1021.67 1022.38 1023.06 1024.10
1012.82 1013.60 1014.21 1014.64 1015.24 1015.71 1016.23 1016.44 1016.12 1016.33 1016.78 1017.27 1017.46 1016.34 1016.21 1015.82 1015.31 1015.34 1015.57 1016.13 1017.38 1018.29 1019.05 1020.16 1020.82 1021.14 1020.73 1020.54 1019.86 1019.54 1019.28 1019.22 1020.05 1020.83 1020.84 1020.89 1020.92 1021.05 1021.32 1021.94 1022.52 1023.18 1024.02 1024.78
1012.63 1013.43 1014.03 1014.44 1015.07 1015.69 1016.24 1016.33 1015.90 1015.86 1016.40 1017.47 1017.86 1017.44 1017.02 1016.67 1016.14 1016.21 1016.28 1016.81 1017.74 1019.00 1020.02 1020.95 1021.49 1021.13 1021.02 1020.88 1020.49 1020.06 1019.55 1019.56 1020.02 1020.20 1020.16 1020.67 1021.13 1021.48 1021.90 1022.58 1023.39 1024.07 1024.65 1025.70
1012.42 1013.24 1013.87 1014.30 1014.98 1015.86 1016.55 1016.41 1015.53 1015.50 1015.48 1016.81 1018.40 1018.46 1017.94 1017.36 1017.10 1017.17 1017.64 1018.07 1018.79 1019.55 1020.48 1021.40 1021.37 1020.96 1020.96 1021.20 1021.01 1020.16 1019.70 1019.56 1019.60 1019.96 1020.41 1020.92 1021.46 1022.05 1022.57 1023.37 1024.07 1024.60 1025.27 1025.98
1012.32 1013.26 1013.64 1014.22 1015.14 1015.62 1015.84 1015.56 1014.86 1015.11 1015.28 1016.87 1019.12 1019.16 1018.48 1018.04 1018.11 1018.67 1019.00 1019.17 1019.90 1020.24 1021.22 1021.58 1021.60 1021.36 1021.10 1021.39 1021.34 1020.32 1019.93 1019.82 1019.99 1020.32 1020.79 1021.87 1022.23 1022.90 1023.39 1023.93 1024.74 1025.29 1026.09 1026.82
1012.30 1013.04 1013.63 1014.52 1015.36 1015.60 1015.59 1015.17 1014.71 1014.98 1015.86 1017.27 1019.49 1020.15 1019.45 1018.75 1019.54 1020.17 1020.29 1020.64 1020.95 1021.50 1021.90 1021.96 1021.85 1021.76 1021.70 1021.67 1020.98 1020.55 1020.37 1020.62 1020.92 1021.14 1021.26 1021.70 1022.76 1023.69 1024.52 1024.96 1025.44 1026.35 1027.34 1027.95
1012.18 1012.87 1013.84 1014.90 1015.05 1014.76 1014.92 1014.85 1014.82 1015.05 1016.35 1018.51 1019.80 1020.40 1020.28 1019.68 1020.44 1020.85 1021.12 1021.39 1022.21 1022.55 1022.36 1022.29 1022.20 1022.34 1021.97 1021.36 1021.15 1020.99 1020.96 1021.06 1021.72 1022.12 1022.40 1023.04 1023.64 1024.59 1025.32 1025.80 1026.54 1027.25 1028.44 1029.06
1011.90 1012.94 1013.87 1015.04 1014.49 1014.26 1014.62 1015.01 1015.69 1016.23 1017.70 1018.53 1019.86 1020.22 1020.51 1020.39 1021.03 1021.82 1022.31 1022.46 1023.11 1023.24 1022.98 1022.56 1022.39 1022.31 1021.72 1021.62 1021.66 1021.66 1021.43 1021.62 1021.95 1022.70 1023.74 1024.27 1024.98 1025.46 1026.14 1026.64 1027.21 1027.96 1028.87 1029.78
1011.31 1012.54 1013.78 1014.48 1014.57 1015.36 1016.23 1017.33 1017.92 1018.67 1019.39 1019.24 1019.69 1019.98 1020.32 1020.48 1021.00 1022.12 1022.64 1023.10 1023.35 1023.52 1023.28 1023.02 1023.00 1022.60 1022.09 1022.14 1022.22 1022.16 1021.86 1022.21 1022.52 1022.56 1023.15 1023.84 1024.55 1025.66 1026.60 1027.52 1028.11 1028.88 1029.71 1030.46
1010.20 1011.60 1013.33 1014.78 1015.31 1016.90 1017.80 1018.59 1019.29 1019.13 1019.04 1019.28 1019.34 1019.65 1019.82 1020.56 1020.65 1021.78 1022.96 1023.20 1023.54 1023.67 1023.37 1023.52 1023.15 1022.24 1022.36 1022.65 1022.96 1023.10 1023.11 1023.24 1023.58 1023.74 1024.11 1024.80 1025.61 1026.35 1027.14 1028.12 1029.08 1029.89 1030.57 1031.35
1010.54 1012.20 1014.45 1015.58 1016.83 1017.45 1017.99 1018.69 1018.83 1018.72 1018.64 1018.85 1019.05 1019.69 1019.91 1020.58 1021.11 1022.35 1022.96 1023.40 1023.88 1023.62 1023.87 1023.46 1022.55 1022.43 1022.84 1023.22 1023.64 1023.96 1024.24 1024.48 1024.82 1025.25 1025.51 1026.00 1026.83 1027.63 1028.15 1029.12 1030.10 1030.65 1031.54 1032.24
1011.72 1013.46 1014.86 1015.41 1016.59 1016.67 1016.51 1016.52 1016.79 1016.97 1017.26 1017.83 1018.50 1019.58 1019.87 1020.84 1021.56 1022.46 1023.06 1023.63 1023.51 1023.94 1024.07 1023.19 1022.52 1022.71 1023.30 1023.82 1024.28 1024.60 1025.13 1025.55 1025.91 1026.38 1026.86 1027.36 1027.94 1028.66 1029.33 1030.06 1030.67 1031.30 1032.32 1032.99
1012.02 1013.65 1014.88 1015.52 1015.60 1016.11 1016.10 1016.16 1016.30 1016.65 1016.84 1017.36 1018.61 1019.51 1020.06 1021.21 1021.88 1022.49 1023.16 1023.57 1023.53 1023.27 1022.82 1022.45 1022.38 1022.97 1023.67 1024.31 1024.78 1025.25 1025.77 1026.30 1026.79 1027.24 1027.68 1028.22 1028.72 1029.32 1030.04 1030.76 1031.28 1031.91 1032.71 1033.34
1011.95 1013.52 1014.83 1015.59 1016.10 1016.75 1016.46 1016.27 1016.40 1016.25 1016.46 1017.17 1017.95 1019.61 1020.51 1021.12 1021.45 1022.25 1022.52 1022.92 1022.68 1022.31 1022.27 1022.21 1022.62 1023.38 1024.06 1024.59 1025.19 1025.74 1026.24 1026.81 1027.34 1027.81 1028.24 1028.74 1029.31 1029.98 1030.59 1031.28 1031.88 1032.52 1033.05 1033.62
1013.59 1014.43 1014.28 1014.87 1015.36 1015.78 1016.13 1015.91 1015.94 1015.98 1016.34 1017.69 1018.32 1019.58 1020.42 1020.98 1021.43 1021.98 1022.09 1022.19 1021.93 1021.98 1022.38 1022.61 1022.86 1023.49 1024.27 1024.84 1025.44 1026.11 1026.74 1027.32 1027.82 1028.27 1028.77 1029.31 1029.93 1030.53 1031.06 1031.58 1032.38 1032.91 1033.40 1033.92
Thickness
5529 5536 5544 5551 5558 5567 5577 5583 5592 5602 5610 5596 5583 5606 5621 5642 5658 5668 5670 5676 5673 5668 5666 5655 5654 5654 5660 5667 5674 5669 5669 5659 5651 5667 5681 5681 5674 5665 5657 5638 5641 5620 5612 5613
5523 5530 5537 5543 5552 5562 5569 5578 5588 5597 5602 5590 5592 5607 5620 5636 5652 5657 5662 5664 5668 5669 5662 5648 5654 5659 5667 5665 5667 5666 5670 5644 5636 5647 5659 5665 5654 5651 5653 5642 5629 5615 5602 5604
5515 5524 5531 5537 5547 5555 5562 5571 5578 5586 5585 5586 5602 5610 5617 5628 5649 5653 5658 5658 5664 5661 5649 5649 5650 5652 5657 5663 5662 5657 5661 5637 5636 5622 5638 5641 5636 5632 5634 5633 5611 5606 5601 5601
5510 5517 5524 5531 5541 5547 5554 5568 5573 5584 5578 5587 5597 5605 5612 5619 5634 5649 5653 5651 5650 5653 5644 5642 5640 5649 5652 5659 5653 5655 5650 5628 5633 5627 5630 5629 5621 5616 5618 5617 5613 5606 5602 5596
5502 5510 5516 5526 5533 5541 5546 5557 5574 5573 5582 5592 5593 5599 5609 5615 5627 5640 5643 5641 5643 5648 5639 5640 5636 5641 5642 5647 5650 5645 5640 5622 5632 5621 5621 5620 5613 5610 5611 5607 5603 5604 5599 5596
5495 5504 5513 5520 5527 5535 5539 5549 5563 5573 5575 5579 5587 5593 5609 5618 5625 5631 5638 5638 5636 5634 5638 5642 5642 5643 5643 5648 5646 5636 5632 5620 5609 5612 5611 5613 5598 5606 5607 5601 5595 5592 5590 5593
5488 5499 5508 5515 5522 5529 5537 5550 5559 5568 5576 5581 5589 5602 5604 5617 5620 5624 5627 5634 5635 5641 5645 5644 5640 5637 5640 5644 5639 5638 5626 5616 5602 5600 5602 5569 5601 5609 5606 5595 5592 5591 5589 5585
5482 5493 5503 5510 5517 5525 5533 5543 5556 5565 5569 5581 5593 5599 5605 5611 5611 5616 5622 5628 5631 5635 5630 5617 5613 5610 5629 5633 5630 5634 5630 5611 5590 5581 5580 5591 5605 5607 5605 5599 5592 5590 5586 5579
5476 5486 5498 5505 5513 5520 5526 5537 5546 5558 5561 5572 5581 5593 5601 5598 5602 5607 5617 5624 5625 5625 5606 5603 5590 5589 5612 5620 5624 5624 5621 5615 5602 5565 5581 5584 5597 5610 5607 5600 5577 5590 5581 5573
5471 5482 5492 5500 5508 5516 5521 5531 5541 5551 5553 5564 5576 5583 5590 5596 5596 5597 5607 5614 5618 5616 5597 5592 5580 5599 5612 5609 5612 5613 5605 5599 5594 5577 5569 5585 5600 5607 5604 5581 5574 5587 5578 5570
5466 5477 5487 5496 5503 5510 5517 5528 5537 5546 5549 5560 5571 5579 5588 5592 5594 5596 5601 5600 5602 5594 5592 5589 5581 5592 5602 5609 5616 5615 5608 5593 5586 5579 5579 5584 5602 5604 5590 5584 5583 5577 5569 5558
5462 5473 5482 5492 5499 5506 5513 5520 5534 5541 5545 5554 5563 5574 5582 5589 5596 5590 5588 5596 5596 5593 5583 5582 5580 5591 5592 5595 5598 5612 5602 5602 5593 5589 5585 5592 5593 5593 5588 5584 5578 5571 5561 5542
5458 5468 5477 5487 5494 5502 5510 5517 5528 5534 5539 5544 5554 5565 5577 5585 5589 5594 5589 5587 5595 5594 5592 5586 5583 5594 5582 5588 5595 5606 5606 5606 5593 5590 5589 5587 5586 5585 5581 5577 5571 5560 5548 5532
5454 5464 5474 5484 5491 5498 5504 5512 5525 5530 5532 5530 5538 5560 5568 5576 5585 5590 5594 5594 5589 5585 5583 5570 5560 5568 5583 5585 5594 5595 5597 5600 5587 5579 5583 5583 5582 5579 5575 5562 5553 5544 5535 5526
5451 5461 5470 5480 5487 5493 5498 5507 5520 5529 5534 5518 5533 5545 5557 5565 5574 5579 5584 5585 5584 5579 5573 5557 5562 5570 5577 5570 5576 5588 5591 5589 5584 5580 5586 5582 5577 5571 5564 5556 5546 5535 5526 5513
5449 5457 5465 5476 5482 5486 5490 5501 5518 5527 5535 5529 5513 5530 5546 5556 5563 5567 5568 5569 5567 5567 5567 5562 5565 5572 5572 5555 5574 5585 5588 5591 5589 5588 5579 5572 5565 5560 5555 5543 5535 5528 5518 5507
5445 5451 5463 5472 5477 5483 5489 5505 5522 5526 5533 5522 5503 5518 5536 5548 5551 5549 5553 5555 5553 5558 5550 5551 5560 5564 5561 5539 5550 5581 5585 5584 5580 5573 5572 5565 5564 5552 5540 5533 5523 5517 5507 5497
5441 5450 5459 5466 5468 5477 5489 5503 5517 5523 5524 5518 5497 5502 5526 5541 5535 5538 5537 5541 5540 5538 5540 5545 5553 5553 5550 5549 5571 5576 5575 5568 5565 5562 5563 5561 5544 5533 5525 5519 5514 5503 5492 5483
5438 5446 5452 5454 5463 5479 5489 5501 5510 5518 5516 5493 5494 5501 5503 5525 5522 5525 5528 5528 5520 5523 5524 5541 5543 5536 5540 5564 5566 5570 5564 5567 5555 5546 5545 5540 5533 5522 5516 5510 5502 5493 5479 5470
5435 5439 5443 5439 5466 5480 5486 5488 5489 5489 5488 5495 5496 5499 5511 5516 5513 5513 5515 5511 5505 5514 5522 5528 5519 5542 5550 5547 5547 5546 5552 5550 5547 5540 5530 5524 5518 5512 5507 5504 5494 5485 5473 5462
5431 5434 5439 5453 5463 5464 5462 5457 5474 5467 5480 5488 5495 5502 5506 5510 5509 5498 5504 5500 5503 5518 5524 5524 5525 5533 5541 5534 5536 5535 5542 5541 5540 5541 5534 5527 5520 5508 5498 5489 5482 5473 5463 5452
5446 5450 5449 5445 5447 5440 5449 5451 5459 5468 5493 5487 5498 5502 5506 5505 5508 5504 5490 5505 5493 5519 5510 5502 5520 5532 5528 5528 5526 5526 5525 5524 5521 5521 5518 5513 5506 5498 5489 5479 5470 5460 5451 5441
5443 5441 5433 5430 5421 5421 5452 5456 5460 5465 5480 5489 5497 5496 5501 5501 5500 5488 5490 5500 5488 5494 5499 5514 5526 5524 5518 5519 5516 5513 5511 5509 5506 5500 5496 5491 5483 5479 5475 5467 5454 5448 5438 5427
5428 5422 5424 5432 5429 5450 5466 5481 5483 5488 5493 5498 5498 5490 5502 5491 5497 5479 5502 5488 5492 5491 5493 5517 5515 5516 5510 5507 5504 5502 5497 5494 5491 5487 5482 5478 5473 5467 5462 5453 5443 5439 5428 5416
5424 5421 5427 5431 5449 5455 5466 5476 5483 5484 5497 5496 5492 5486 5492 5482 5486 5482 5487 5493 5487 5499 5515 5508 5506 5505 5501 5498 5494 5491 5486 5483 5479 5475 5472 5467 5463 5458 5452 5444 5438 5430 5419 5411
5432 5428 5426 5433 5445 5446 5456 5473 5480 5485 5497 5493 5493 5486 5489 5492 5485 5494 5492 5494 5504 5511 5501 5498 5499 5495 5494 5490 5486 5483 5479 5475 5470 5466 5463 5459 5454 5449 5443 5435 5427 5418 5413 5405
5419 5417 5435 5444 5451 5455 5460 5471 5478 5484 5495 5477 5485 5498 5497 5478 5484 5492 5488 5495 5500 5494 5489 5491 5494 5490 5486 5485 5480 5474 5470 5466 5462 5459 5455 5450 5444 5439 5434 5429 5421 5413 5406 5399